Hourly Data Report for September 25, 2017

All times are specified in Local Standard Time (LST). Add 1 hour to adjust for Daylight Saving Time where and when it is observed.

MIRAMICHI RCS
NEW BRUNSWICK

47°00'34.000" N
65°27'54.000" W
33.00 m
8100989
71744
ACQ

Download Data

Hourly Data (September 2017)
Hourly Data Report for September 25, 2017
Temp Definition
°C
Dew Point Temp Definition
°C
Rel Hum Definition
%
Wind Dir Definition
10's deg

Wind Spd Definition
km/h
Visibility Definition
km
Stn Press Definition
kPa
Hmdx Definition


Wind Chill Definition


Weather Definition


TIME
00:00 14.1 12.5 90 0 1   101.37     LegendNANA
01:00 12.7 11.6 93 0 1   101.40     LegendNANA
02:00 11.7 10.6 93   0   101.43     LegendNANA
03:00 11.0 10.0 93 14 3   101.43     LegendNANA
04:00 11.0 10.1 95   0   101.45     LegendNANA
05:00 11.6 10.9 96 0 1   101.49     LegendNANA
06:00 12.4 11.7 95 11 1   101.51     LegendNANA
07:00 13.0 12.0 94   0   101.54     LegendNANA
08:00 14.1 12.9 93 23 2   101.55     LegendNANA
09:00 15.9 12.8 82 16 5   101.57     LegendNANA
10:00 17.8 13.3 75 18 9   101.53     LegendNANA
11:00 19.2 13.7 70 21 8   101.48     LegendNANA
12:00 20.3 14.1 68 21 11   101.40     LegendNANA
13:00 22.4 15.1 63 20 13   101.31 26   LegendNANA
14:00 24.5 15.8 59 20 17   101.21 29   LegendNANA
15:00 26.0 16.7 57 22 18   101.12 31   LegendNANA
16:00 26.5 17.1 56 23 19   101.05 32   LegendNANA
17:00 26.7 17.6 57 20 16   100.99 32   LegendNANA
18:00 24.7 17.5 65 18 14   100.97 30   LegendNANA
19:00 22.7 17.7 74 22 9   100.94 28   LegendNANA
20:00 23.0 18.1 74 21 15   100.91 29   LegendNANA
21:00 23.7 18.6 73 23 20   100.89 30   LegendNANA
22:00 23.0 18.6 77 24 18   100.86 29   LegendNANA
23:00 22.3 18.6 80 24 15   100.82 29   LegendNANA

Notes on Data Quality.

Legend

  • E = Estimated
  • M = Missing
  • NA = Not Available
  • ‡ = Partner data that is not subject to review by the National Climate Archives
Date modified: